Precipitable_Water
0.71 0.75 0.77 0.80 0.81 0.82 0.78 0.61 0.38 0.65 0.71 0.38 0.34 0.23 0.25 0.33 0.28 0.31 0.26 0.24 0.19 0.23 0.24 0.25 0.30 0.30 0.34 0.51 0.49 0.36 0.38 0.35 0.30 0.32 0.43 0.45 0.42 0.37 0.35 0.29 0.27 0.32 0.30 0.27
0.74 0.77 0.78 0.80 0.82 0.82 0.71 0.50 0.48 0.68 0.62 0.29 0.26 0.30 0.30 0.34 0.31 0.29 0.28 0.22 0.19 0.20 0.21 0.22 0.29 0.32 0.41 0.54 0.52 0.47 0.45 0.35 0.28 0.30 0.36 0.41 0.39 0.39 0.38 0.36 0.34 0.26 0.24 0.28
0.75 0.77 0.79 0.80 0.81 0.82 0.73 0.51 0.37 0.48 0.50 0.42 0.33 0.31 0.30 0.29 0.37 0.33 0.34 0.29 0.27 0.20 0.18 0.23 0.24 0.29 0.38 0.48 0.48 0.57 0.58 0.43 0.31 0.24 0.30 0.38 0.36 0.38 0.39 0.36 0.30 0.29 0.26 0.27
0.75 0.77 0.78 0.79 0.81 0.82 0.72 0.51 0.39 0.44 0.31 0.34 0.37 0.36 0.32 0.30 0.28 0.36 0.38 0.28 0.27 0.25 0.15 0.17 0.17 0.27 0.42 0.45 0.53 0.54 0.60 0.39 0.37 0.34 0.36 0.38 0.39 0.39 0.39 0.35 0.36 0.30 0.31 0.32
0.75 0.76 0.78 0.79 0.81 0.82 0.64 0.45 0.42 0.47 0.39 0.41 0.38 0.35 0.29 0.29 0.32 0.33 0.29 0.28 0.29 0.28 0.21 0.19 0.18 0.23 0.29 0.36 0.46 0.55 0.62 0.43 0.42 0.35 0.37 0.38 0.35 0.41 0.41 0.40 0.38 0.38 0.37 0.33
0.75 0.77 0.79 0.80 0.78 0.76 0.61 0.62 0.59 0.48 0.41 0.38 0.35 0.26 0.30 0.32 0.35 0.35 0.36 0.32 0.31 0.28 0.27 0.30 0.26 0.36 0.44 0.48 0.46 0.45 0.53 0.52 0.45 0.32 0.40 0.38 0.33 0.34 0.41 0.42 0.45 0.42 0.35 0.40
0.75 0.73 0.73 0.75 0.73 0.72 0.67 0.65 0.58 0.46 0.33 0.34 0.28 0.35 0.36 0.34 0.35 0.32 0.33 0.35 0.33 0.34 0.41 0.42 0.39 0.44 0.45 0.42 0.42 0.49 0.42 0.51 0.48 0.35 0.41 0.28 0.30 0.43 0.44 0.42 0.44 0.44 0.44 0.46
0.64 0.64 0.64 0.66 0.68 0.70 0.67 0.68 0.60 0.48 0.35 0.36 0.36 0.34 0.35 0.38 0.38 0.35 0.36 0.38 0.42 0.43 0.37 0.28 0.23 0.24 0.25 0.30 0.39 0.41 0.46 0.41 0.41 0.35 0.33 0.34 0.37 0.41 0.40 0.40 0.38 0.46 0.45 0.48
0.58 0.60 0.61 0.62 0.63 0.68 0.67 0.67 0.69 0.57 0.42 0.35 0.39 0.37 0.38 0.33 0.32 0.34 0.34 0.42 0.45 0.44 0.36 0.27 0.15 0.14 0.21 0.23 0.29 0.45 0.47 0.44 0.36 0.38 0.34 0.26 0.32 0.44 0.49 0.50 0.34 0.46 0.48 0.49
0.58 0.59 0.59 0.58 0.61 0.65 0.66 0.63 0.68 0.57 0.42 0.44 0.46 0.35 0.33 0.40 0.37 0.32 0.34 0.36 0.36 0.42 0.32 0.25 0.19 0.16 0.24 0.20 0.24 0.27 0.33 0.35 0.34 0.35 0.34 0.40 0.49 0.53 0.51 0.34 0.33 0.51 0.54 0.51
0.62 0.62 0.62 0.63 0.63 0.63 0.63 0.58 0.68 0.55 0.45 0.46 0.51 0.46 0.38 0.39 0.38 0.30 0.34 0.35 0.35 0.35 0.30 0.26 0.23 0.20 0.24 0.24 0.30 0.31 0.29 0.29 0.31 0.38 0.34 0.34 0.58 0.54 0.44 0.51 0.55 0.55 0.55 0.57
0.64 0.66 0.67 0.66 0.67 0.69 0.65 0.51 0.63 0.63 0.51 0.48 0.61 0.59 0.52 0.46 0.42 0.37 0.39 0.35 0.35 0.35 0.31 0.30 0.29 0.23 0.26 0.23 0.19 0.32 0.25 0.31 0.33 0.34 0.32 0.43 0.49 0.56 0.64 0.68 0.64 0.62 0.60 0.62
0.64 0.65 0.65 0.66 0.67 0.68 0.68 0.56 0.59 0.56 0.47 0.46 0.51 0.48 0.56 0.62 0.57 0.55 0.36 0.40 0.44 0.42 0.47 0.38 0.34 0.27 0.31 0.22 0.26 0.26 0.28 0.37 0.34 0.36 0.35 0.34 0.40 0.48 0.48 0.63 0.69 0.71 0.70 0.65
0.60 0.61 0.65 0.67 0.68 0.67 0.67 0.57 0.59 0.53 0.45 0.34 0.38 0.57 0.51 0.63 0.62 0.57 0.56 0.51 0.56 0.56 0.52 0.43 0.36 0.30 0.36 0.28 0.32 0.28 0.27 0.31 0.28 0.30 0.35 0.42 0.45 0.46 0.52 0.61 0.66 0.65 0.74 0.71
0.64 0.60 0.59 0.67 0.68 0.67 0.65 0.62 0.61 0.59 0.41 0.31 0.38 0.59 0.60 0.60 0.59 0.54 0.52 0.53 0.53 0.52 0.47 0.44 0.38 0.40 0.37 0.38 0.38 0.36 0.40 0.39 0.35 0.32 0.41 0.37 0.41 0.43 0.49 0.58 0.59 0.62 0.61 0.71
0.55 0.62 0.67 0.65 0.69 0.67 0.59 0.46 0.62 0.60 0.55 0.46 0.37 0.58 0.55 0.60 0.59 0.54 0.54 0.55 0.52 0.54 0.45 0.44 0.47 0.54 0.40 0.31 0.32 0.45 0.50 0.52 0.50 0.46 0.51 0.46 0.40 0.40 0.46 0.50 0.56 0.61 0.63 0.65
0.64 0.65 0.65 0.67 0.65 0.60 0.47 0.42 0.50 0.62 0.64 0.46 0.39 0.40 0.53 0.56 0.54 0.52 0.51 0.52 0.47 0.42 0.39 0.39 0.42 0.44 0.47 0.44 0.34 0.48 0.51 0.55 0.55 0.58 0.53 0.41 0.46 0.43 0.49 0.50 0.50 0.49 0.53 0.58
0.66 0.67 0.66 0.65 0.63 0.63 0.56 0.60 0.61 0.68 0.56 0.50 0.35 0.37 0.43 0.53 0.42 0.39 0.48 0.42 0.45 0.43 0.38 0.40 0.38 0.46 0.48 0.37 0.45 0.51 0.51 0.55 0.54 0.55 0.58 0.52 0.52 0.52 0.52 0.53 0.54 0.53 0.52 0.55
0.64 0.64 0.65 0.63 0.56 0.48 0.53 0.69 0.70 0.68 0.52 0.35 0.35 0.29 0.29 0.51 0.44 0.43 0.42 0.43 0.30 0.40 0.35 0.36 0.40 0.41 0.35 0.38 0.42 0.47 0.48 0.45 0.46 0.52 0.54 0.53 0.51 0.53 0.55 0.54 0.55 0.52 0.52 0.49
0.64 0.63 0.51 0.43 0.55 0.69 0.65 0.56 0.48 0.46 0.46 0.40 0.32 0.39 0.31 0.41 0.40 0.38 0.37 0.39 0.31 0.28 0.35 0.43 0.37 0.34 0.41 0.45 0.45 0.47 0.50 0.52 0.55 0.50 0.46 0.47 0.49 0.53 0.56 0.58 0.59 0.58 0.56 0.55
0.56 0.46 0.45 0.57 0.67 0.53 0.42 0.36 0.33 0.34 0.30 0.35 0.34 0.35 0.30 0.43 0.31 0.33 0.39 0.35 0.36 0.27 0.33 0.32 0.31 0.28 0.34 0.41 0.45 0.51 0.53 0.54 0.56 0.55 0.53 0.52 0.51 0.53 0.58 0.61 0.61 0.62 0.63 0.60
0.50 0.48 0.57 0.56 0.46 0.39 0.31 0.29 0.31 0.28 0.28 0.35 0.33 0.35 0.36 0.37 0.41 0.35 0.41 0.37 0.39 0.28 0.43 0.32 0.23 0.28 0.38 0.42 0.44 0.47 0.51 0.51 0.52 0.56 0.55 0.57 0.61 0.63 0.63 0.62 0.63 0.62 0.61 0.58
0.56 0.45 0.38 0.35 0.33 0.25 0.24 0.23 0.27 0.28 0.34 0.36 0.36 0.32 0.35 0.37 0.41 0.39 0.38 0.32 0.31 0.43 0.31 0.24 0.24 0.31 0.34 0.37 0.40 0.41 0.44 0.47 0.48 0.49 0.52 0.54 0.55 0.56 0.56 0.56 0.58 0.58 0.57 0.57
0.35 0.31 0.24 0.25 0.23 0.24 0.25 0.27 0.29 0.36 0.37 0.39 0.40 0.39 0.39 0.43 0.38 0.39 0.31 0.35 0.35 0.27 0.22 0.21 0.25 0.30 0.33 0.36 0.39 0.40 0.40 0.45 0.45 0.45 0.47 0.47 0.47 0.48 0.50 0.50 0.51 0.50 0.50 0.50
0.29 0.28 0.21 0.22 0.26 0.28 0.30 0.33 0.34 0.39 0.43 0.43 0.42 0.43 0.42 0.38 0.35 0.34 0.32 0.27 0.22 0.22 0.21 0.24 0.29 0.33 0.34 0.36 0.38 0.39 0.40 0.41 0.41 0.43 0.43 0.43 0.44 0.45 0.45 0.46 0.47 0.47 0.47 0.46
0.28 0.27 0.24 0.26 0.24 0.25 0.28 0.29 0.32 0.39 0.43 0.46 0.44 0.37 0.33 0.30 0.31 0.27 0.24 0.21 0.19 0.21 0.26 0.31 0.34 0.34 0.34 0.35 0.37 0.38 0.39 0.40 0.40 0.41 0.42 0.43 0.42 0.42 0.42 0.43 0.43 0.43 0.43 0.43
0.26 0.25 0.29 0.26 0.26 0.25 0.27 0.30 0.32 0.40 0.37 0.34 0.35 0.30 0.28 0.31 0.26 0.24 0.26 0.24 0.26 0.29 0.31 0.34 0.35 0.35 0.35 0.37 0.37 0.38 0.39 0.39 0.40 0.40 0.40 0.40 0.41 0.41 0.40 0.38 0.39 0.40 0.40 0.39
Wind_Speed
40 38 37 35 34 32 31 29 29 28 32 30 32 38 32 32 29 27 34 28 28 27 23 23 22 21 19 15 18 23 30 25 28 29 20 26 26 25 22 19 18 16 15 18
38 37 36 36 34 33 30 29 27 28 32 30 34 31 35 34 27 29 25 26 31 28 27 23 25 23 21 17 19 17 20 27 23 24 27 28 24 24 27 22 18 23 18 15
37 37 36 35 35 34 33 29 27 27 34 28 29 31 32 31 28 34 32 26 25 27 32 32 28 24 23 22 21 24 21 26 31 32 24 22 23 23 28 28 21 20 22 20
37 38 37 37 37 37 37 33 30 29 29 35 31 28 23 31 28 26 22 26 31 24 24 30 34 28 23 22 19 20 18 28 32 32 30 27 25 23 26 28 26 22 21 21
38 39 40 40 40 39 39 35 33 32 28 30 35 34 32 31 27 25 24 25 21 25 27 28 26 26 28 26 21 19 17 22 23 29 28 31 32 31 27 25 25 25 24 25
39 39 41 40 40 40 38 38 39 33 34 32 32 39 32 29 30 27 26 22 22 24 23 23 27 27 27 27 25 20 18 17 16 30 27 31 30 36 28 27 24 22 22 23
38 39 40 42 43 45 45 38 38 36 34 38 39 29 33 33 31 29 24 26 23 20 21 16 21 25 25 28 30 26 23 20 20 21 23 27 35 29 31 29 29 28 25 23
39 40 41 42 43 45 45 39 39 40 39 38 38 36 33 33 33 34 29 26 22 18 19 20 20 21 23 24 27 31 28 21 18 21 26 26 30 25 30 33 29 25 25 24
41 42 43 44 45 47 47 45 42 36 39 44 39 37 34 32 32 31 32 31 28 22 19 19 24 21 20 20 20 23 26 23 22 18 20 30 25 29 24 21 27 26 22 23
43 43 44 45 46 48 50 45 49 40 33 39 39 39 38 31 29 27 25 25 28 27 24 22 22 25 24 23 20 21 22 21 25 23 23 24 24 23 25 26 24 23 22 23
43 44 45 46 46 48 50 50 49 46 36 31 39 40 35 34 34 30 25 24 27 26 27 25 24 24 27 24 23 20 23 19 19 16 15 22 19 16 16 21 25 23 19 20
39 43 44 46 47 49 48 44 46 46 42 28 33 37 39 38 36 30 28 25 23 30 27 29 24 25 23 25 27 27 26 22 19 20 15 15 18 21 20 18 16 21 20 21
38 40 39 39 40 43 47 37 41 39 39 40 25 35 32 34 32 30 26 27 27 28 28 28 27 26 23 25 24 26 30 30 25 20 18 16 15 17 21 24 22 21 22 23
35 38 40 42 39 40 45 40 35 35 30 31 31 31 34 30 31 27 24 23 21 24 26 26 27 25 25 24 25 25 26 27 32 28 25 19 18 18 20 22 23 21 22 21
30 34 38 41 38 38 39 38 35 32 27 19 22 22 27 32 30 27 23 24 22 23 20 20 24 25 23 22 23 20 21 22 22 25 24 23 23 21 19 20 20 19 20 26
33 36 38 37 38 37 38 30 33 34 30 9 18 18 20 23 23 23 21 21 20 22 22 23 21 21 21 22 21 17 18 17 17 19 22 22 21 20 21 20 21 20 20 20
33 36 38 39 38 34 31 28 30 36 28 10 14 16 20 21 19 17 19 18 17 18 20 23 24 21 19 18 22 15 14 15 17 18 21 19 18 18 17 18 20 20 20 20
39 40 40 37 34 26 24 27 34 35 20 12 12 13 17 17 16 16 18 17 17 18 19 20 22 20 20 22 18 20 19 17 17 19 20 21 20 19 18 18 19 19 21 21
43 40 36 31 25 22 25 35 31 25 16 12 11 14 15 15 13 14 14 15 15 16 17 20 20 18 16 16 19 19 19 20 21 21 19 19 17 17 17 18 19 20 21 21
31 26 25 23 25 29 33 29 19 18 14 10 10 11 10 11 11 12 12 13 15 15 17 17 17 17 16 15 17 18 18 19 16 17 18 19 18 18 18 18 18 19 19 19
21 25 26 28 25 23 21 18 15 13 11 10 10 11 10 10 9 10 13 11 11 13 14 16 17 18 17 17 15 16 19 19 18 16 17 18 18 19 19 18 17 16 16 16
20 23 22 19 17 15 14 13 12 10 9 8 10 11 9 8 8 7 10 8 10 9 11 11 14 15 12 12 12 12 14 15 15 16 16 16 16 17 18 18 17 17 17 16
15 14 13 10 9 10 10 9 8 7 7 5 7 8 8 7 7 8 11 8 7 7 8 11 12 14 13 13 11 11 12 12 14 14 14 14 14 15 16 16 16 16 16 17
10 9 8 8 7 8 9 8 6 7 8 6 6 7 6 4 6 7 8 7 5 5 5 9 11 11 10 9 9 9 9 9 8 8 10 11 11 12 12 12 13 13 12 12
8 7 7 10 10 10 9 8 9 9 7 6 8 6 5 5 6 6 5 4 4 4 4 5 8 8 10 8 7 7 7 7 6 6 5 5 5 5 5 6 6 6 6 7
8 8 9 9 10 8 8 7 9 8 6 7 7 6 5 4 2 3 3 4 3 4 4 4 4 5 6 7 6 5 5 4 3 2 2 3 2 2 2 1 0 1 1 2
9 9 9 10 9 7 6 9 8 6 6 6 6 6 6 4 4 4 2 3 3 3 2 2 4 4 4 4 4 4 4 3 3 3 3 2 2 2 1 1 2 2 3 3
Wind_Direction
249 246 244 243 241 238 232 233 237 230 218 226 233 236 234 240 243 238 239 242 238 232 240 240 239 237 235 252 237 233 229 233 237 235 235 231 229 228 226 231 235 239 239 248
244 242 240 239 236 231 227 228 229 224 216 230 232 232 231 236 236 237 237 237 236 231 231 239 237 236 240 239 241 240 230 232 237 235 236 234 228 230 231 230 235 234 240 249
240 239 237 235 232 227 221 221 223 224 224 232 228 227 228 228 231 237 239 242 244 241 236 232 236 241 244 245 247 246 238 236 233 232 234 228 231 235 228 225 234 237 241 247
240 238 237 234 230 225 218 220 227 224 224 224 226 223 226 225 227 232 230 236 237 239 242 232 234 238 243 243 246 244 239 243 236 237 232 233 235 235 226 225 229 234 242 240
240 239 236 233 228 223 220 222 224 224 229 222 223 227 226 227 224 227 229 233 238 236 240 236 236 243 243 238 243 239 248 244 244 239 233 231 233 239 234 232 237 243 244 244
242 238 234 228 224 220 223 225 225 226 226 224 222 224 225 226 228 235 233 238 241 240 243 245 236 242 240 236 233 237 236 247 250 239 241 235 236 226 235 234 234 236 241 244
239 237 233 230 229 225 223 225 221 224 228 224 226 225 225 226 228 230 236 236 241 244 243 245 232 235 241 238 236 234 232 241 239 244 235 233 240 231 233 237 239 240 243 246
240 237 234 231 227 223 221 223 223 224 227 229 228 228 228 227 231 235 239 238 239 244 242 240 240 242 246 241 238 231 233 237 243 248 238 240 235 235 228 230 239 239 242 244
242 238 235 232 228 224 222 223 221 224 228 229 227 226 226 227 230 235 239 239 239 240 240 234 233 235 236 241 238 233 230 233 235 246 255 235 239 235 232 232 242 239 240 240
241 238 235 232 229 225 221 223 219 223 233 230 224 225 225 226 227 235 234 235 234 230 235 236 236 238 233 237 233 230 228 234 235 245 255 245 238 238 234 230 239 237 236 239
241 237 233 230 227 224 220 222 220 220 225 233 227 224 223 224 228 231 235 231 232 228 230 233 237 238 233 234 232 230 223 227 234 234 264 235 228 238 228 241 239 239 244 251
239 235 231 228 225 219 216 219 216 217 218 228 229 227 227 226 228 229 229 231 231 228 231 233 237 238 236 232 238 238 233 228 233 226 246 244 235 233 237 245 245 241 241 246
234 226 220 215 211 208 206 209 205 207 214 219 227 220 221 220 224 226 228 234 236 233 233 232 233 234 231 235 239 239 236 232 242 242 249 250 249 252 245 239 248 247 242 243
227 218 211 205 201 199 196 197 198 201 207 218 225 222 217 214 211 216 227 227 231 229 227 227 226 229 231 235 240 241 239 235 240 246 248 251 257 259 257 249 246 250 245 241
198 191 187 184 186 185 187 191 192 192 193 198 205 205 205 207 209 215 225 227 224 222 225 223 225 229 232 236 237 244 239 241 239 242 244 245 249 256 261 244 242 248 251 240
140 153 162 168 170 172 174 180 190 188 185 185 187 194 191 194 199 207 213 218 219 223 223 226 225 232 228 230 234 239 245 248 245 245 244 241 250 256 252 246 250 254 255 254
130 139 147 148 154 159 166 173 175 174 173 180 180 185 188 192 200 209 213 215 220 225 230 226 222 227 222 228 225 240 249 250 245 252 247 246 254 260 256 250 249 252 255 259
116 126 132 141 146 146 160 163 161 166 169 175 164 171 181 191 200 211 217 222 226 233 233 227 219 224 226 228 243 244 250 254 249 257 250 249 255 259 259 256 258 259 265 269
109 114 123 129 140 148 148 148 153 166 173 171 177 180 194 202 208 211 217 222 232 235 227 220 212 215 220 235 244 244 250 257 257 255 251 252 256 262 264 264 266 265 266 268
109 110 121 124 129 133 146 159 154 160 166 164 169 177 180 188 203 215 223 229 232 224 222 209 213 213 221 240 245 247 253 254 254 247 253 256 257 259 264 266 268 268 267 266
102 109 114 122 127 133 144 159 173 184 190 199 197 194 197 211 223 229 224 227 218 212 216 210 216 218 235 248 250 254 251 248 252 255 253 253 254 255 260 263 267 267 264 264
119 118 121 124 131 135 141 154 166 173 184 193 199 204 209 216 218 214 201 206 198 206 202 209 212 215 227 231 243 255 247 251 257 257 253 253 254 257 259 262 263 263 264 264
119 120 123 125 133 126 145 156 164 168 179 197 197 197 199 199 206 201 200 207 204 204 213 215 219 223 229 236 249 256 258 257 257 256 253 256 260 260 259 261 265 264 265 265
124 121 117 128 130 133 137 140 147 148 142 144 160 157 158 175 175 173 187 193 201 200 213 218 222 226 231 244 246 254 252 253 256 255 255 256 259 261 263 266 265 264 265 262
128 123 120 123 123 124 131 124 132 131 119 113 129 139 140 138 149 162 166 174 177 194 207 224 234 233 232 239 249 248 247 255 257 257 253 249 247 248 254 262 260 259 257 258
143 117 130 135 131 127 122 117 134 129 121 119 123 112 106 110 141 185 200 196 213 219 224 234 215 200 211 235 240 233 230 215 195 189 150 144 145 150 154 154 213 258 257 260
138 142 133 137 134 138 141 139 138 126 125 118 117 91 79 110 86 81 174 201 174 179 153 137 178 171 187 185 178 165 162 171 178 164 157 148 150 152 145 318 295 297 293 289